This demonstration page uses our WeatherBlox Daily Observations layout. Learn more.

Left ArrowRight Arrow

38.20091, -84.87328

Hourly Observations for February 14, 2022

Temp ( °F °C ) Dew Point ( °F °C ) Humidity (%) Winds ( mph kmh ) Pressure ( in mb ) Visibility ( mi km ) Precip ( " mm )
12:53 am 00:53 undefined 23 -5 14 -10 68 68 N 5 7 30.26 1025 10 16 0.00 0.00
1:53 am 01:53 Cloudy 21 -6.1 12 -11.1 68 68 NNE 7 11 30.26 1025 10 16 0.00 0.00
2:53 am 02:53 undefined N/A N/A N/A undefined N/A N/A N/A 0.00 0.00
3:53 am 03:53 undefined N/A N/A N/A undefined N/A N/A N/A 0.00 0.00
4:53 am 04:53 undefined N/A N/A N/A undefined N/A N/A N/A 0.00 0.00
5:53 am 05:53 Cloudy 19 -7.2 11 -11.7 71 71 Calm 30.28 1025 10 16 0.00 0.00
6:53 am 06:53 Cloudy 19 -7.2 11 -11.7 71 71 Calm 30.31 1026 10 16 0.00 0.00
7:46 am 07:46 Cloudy 19 -7.2 11 -11.7 71 71 ENE 3 6 30.36 1028 10 16 0.00 0.00
7:53 am 07:53 Cloudy 19 -7.2 11 -11.7 71 71 E 3 6 30.32 1027 10 16 0.00 0.00
8:32 am 08:32 undefined 20 -6.7 12 -11.1 71 71 undefined N/A 30.35 1028 N/A 0.00 0.00
8:53 am 08:53 undefined N/A N/A N/A undefined N/A N/A 10 16 0.00 0.00
9:38 am 09:38 Cloudy 21 -6.1 12 -11.1 68 68 Calm 30.37 1029 10 16 0.00 0.00
9:53 am 09:53 Cloudy 22 -5.6 12 -11.1 66 66 Calm 30.35 1028 10 16 0.00 0.00
10:53 am 10:53 Mostly Cloudy 25 -3.9 15 -9.4 66 66 SW 10 17 30.35 1028 10 16 0.00 0.00
11:02 am 11:02 Partly Cloudy 27 -2.8 15 -9.4 61 61 VRB 5 7 30.38 1029 10 16 0.00 0.00
11:30 am 11:30 Mostly Cloudy 28 -2.2 14 -10 56 56 VRB 6 9 30.39 1029 10 16 0.00 0.00
11:38 am 11:38 Partly Cloudy 29 -1.7 14 -10 54 54 W 6 9 30.39 1029 10 16 0.00 0.00
11:53 am 11:53 Mostly Sunny 28 -2.2 13 -10.6 53 53 undefined N/A 30.37 1029 10 16 0.00 0.00
12:53 pm 12:53 Sunny 31 -0.6 13 -10.6 47 47 Calm 30.35 1028 10 16 0.00 0.00
1:53 pm 13:53 Sunny 34 1.1 12 -11.1 40 40 undefined N/A 30.31 1027 10 16 0.00 0.00
2:53 pm 14:53 Sunny 35 1.7 12 -11.1 38 38 W 7 11 30.32 1027 10 16 0.00 0.00
3:53 pm 15:53 Sunny 36 2.2 13 -10.6 39 39 W 6 9 30.33 1027 10 16 0.00 0.00
4:53 pm 16:53 Sunny 36 2.2 13 -10.6 39 39 SW 5 7 30.34 1028 10 16 0.00 0.00
5:53 pm 17:53 Sunny 36 2.2 13 -10.6 39 39 NW 5 7 30.34 1028 10 16 0.00 0.00
6:53 pm 18:53 Clear 30 -1.1 15 -9.4 54 54 Calm 30.37 1028 10 16 0.00 0.00
7:53 pm 19:53 Clear 27 -2.8 16 -8.9 63 63 Calm 30.38 1029 10 16 0.00 0.00
8:53 pm 20:53 Clear 24 -4.4 16 -8.9 71 71 Calm 30.42 1030 10 16 0.00 0.00
9:53 pm 21:53 Clear 23 -5 15 -9.4 72 72 Calm 30.40 1030 10 16 0.00 0.00
10:53 pm 22:53 Clear 23 -5 15 -9.4 72 72 Calm 30.42 1030 10 16 0.00 0.00
11:53 pm 23:53 Clear 22 -5.6 15 -9.4 75 75 Calm 30.42 1030 10 16 0.00 0.00

Powered by AerisWeather